Volver al catálogo

STARLINK-32164

ActivoComunicacionesVLEO
NORAD 60271·PAYLOAD·🇺🇸 United States

Lanzado Jul 27, 2024 desde Cape Canaveral Space Force Station

Loading…

Próximos Pases (próximas 24 horas)

TLE

ActualizadoSource: CelesTrak SupGP

Época: Sep 14, 2026, 22:31 UTC

1 60271C 24131S   26257.93868056  .00042425  00000+0  12534-2 0  2574
2 60271  53.1569 251.8572 0001313  95.1302 317.2878 15.34370138    17

Sigue STARLINK-32164 en tiempo real con AllMySat

Download on the App Store